| time (UTC) | temp F | wind direction | speed MPH | gust MPH | rain 1hr in | rain 24hr in | rain mn in | humidity % | barometer mb |
| 20260508103523 | 36 | 88 | 3.0 | 5.0 | 0.00 | 0.00 | 0.00 | 71 | 1018.0 |
| 20260508102521 | 34 | 99 | 2.0 | 4.0 | 0.00 | 0.00 | 0.00 | 71 | 1017.9 |
| 20260508101519 | 33 | 165 | 3.0 | 6.0 | 0.00 | 0.00 | 0.00 | 79 | 1017.9 |
| 20260508100521 | 34 | 155 | 4.0 | 5.0 | 0.00 | 0.00 | 0.00 | 77 | 1017.8 |
| 20260508095521 | 36 | 143 | 3.0 | 4.0 | 0.00 | 0.00 | 0.00 | 74 | 1017.8 |
| 20260508094519 | 36 | 148 | 4.0 | 6.0 | 0.00 | 0.00 | 0.00 | 70 | 1017.9 |
| 20260508093543 | 38 | 118 | 1.0 | 2.0 | 0.00 | 0.00 | 0.00 | 68 | 1017.8 |
| 20260508092522 | 39 | 121 | 3.0 | 4.0 | 0.00 | 0.00 | 0.00 | 64 | 1017.8 |
| 20260508091522 | 39 | 131 | 2.0 | 3.0 | 0.00 | 0.00 | 0.00 | 67 | 1017.9 |
| 20260508090520 | 40 | 246 | 2.0 | 6.0 | 0.00 | 0.00 | 0.00 | 64 | 1017.8 |
| 20260508085522 | 41 | 94 | 2.0 | 4.0 | 0.00 | 0.00 | 0.00 | 63 | 1017.9 |
| 20260508084522 | 42 | 112 | 2.0 | 3.0 | 0.00 | 0.00 | 0.00 | 60 | 1017.9 |
| 20260508083520 | 41 | 62 | 5.0 | 6.0 | 0.00 | 0.00 | 0.00 | 60 | 1018.0 |
| 20260508082520 | 41 | 83 | 4.0 | 6.0 | 0.00 | 0.00 | 0.00 | 64 | 1018.0 |
| 20260508081523 | 40 | 97 | 2.0 | 4.0 | 0.00 | 0.00 | 0.00 | 65 | 1018.2 |
| 20260508080543 | 38 | 101 | 1.0 | 3.0 | 0.00 | 0.00 | 0.00 | 70 | 1018.3 |
| 20260508075524 | 37 | 157 | 4.0 | 5.0 | 0.00 | 0.00 | 0.00 | 74 | 1018.3 |
| 20260508074523 | 38 | 167 | 1.0 | 3.0 | 0.00 | 0.00 | 0.00 | 73 | 1018.3 |
| 20260508073524 | 37 | 144 | 2.0 | 3.0 | 0.00 | 0.00 | 0.00 | 77 | 1018.3 |
| 20260508072524 | 38 | 173 | 3.0 | 4.0 | 0.00 | 0.00 | 0.00 | 76 | 1018.2 |
| 20260508071521 | 38 | 175 | 4.0 | 6.0 | 0.00 | 0.00 | 0.00 | 75 | 1018.4 |
| 20260508070525 | 39 | 149 | 2.0 | 3.0 | 0.00 | 0.00 | 0.00 | 75 | 1018.5 |
| 20260508065544 | 39 | 148 | 4.0 | 5.0 | 0.00 | 0.00 | 0.00 | 76 | 1018.5 |
| 20260508064524 | 40 | 110 | 2.0 | 3.0 | 0.00 | 0.00 | 0.00 | 70 | 1018.5 |
| 20260508063525 | 41 | 126 | 2.0 | 3.0 | 0.00 | 0.00 | 0.00 | 66 | 1018.4 |
| 20260508062525 | 41 | 134 | 3.0 | 4.0 | 0.00 | 0.00 | 0.00 | 68 | 1018.4 |
| 20260508061525 | 41 | 168 | 4.0 | 5.0 | 0.00 | 0.00 | 0.00 | 69 | 1018.3 |
| 20260508060525 | 41 | 149 | 3.0 | 5.0 | 0.00 | 0.00 | 0.00 | 66 | 1018.2 |
| 20260508055546 | 40 | 141 | 4.0 | 5.0 | 0.00 | 0.00 | 0.00 | 70 | 1018.4 |
| 20260508054526 | 39 | 167 | 3.0 | 5.0 | 0.00 | 0.00 | 0.00 | 74 | 1018.3 |
| 20260508053517 | 39 | 174 | 4.0 | 6.0 | 0.00 | 0.00 | 0.00 | 76 | 1018.3 |
| 20260508052527 | 41 | 223 | 1.0 | 4.0 | 0.00 | 0.00 | 0.00 | 70 | 1018.4 |
| 20260508051546 | 41 | 155 | 1.0 | 3.0 | 0.00 | 0.00 | 0.00 | 63 | 1018.4 |
| 20260508050527 | 42 | 78 | 0.0 | 1.0 | 0.00 | 0.00 | 0.00 | 68 | 1018.6 |
| 20260508045527 | 43 | 126 | 2.0 | 4.0 | 0.00 | 0.00 | 0.00 | 58 | 1018.6 |
| 20260508044527 | 42 | 109 | 2.0 | 4.0 | 0.00 | 0.00 | 0.00 | 61 | 1018.6 |
| 20260508043538 | 42 | 133 | 3.0 | 5.0 | 0.00 | 0.00 | 0.00 | 66 | 1018.7 |
| 20260508042527 | 43 | 184 | 1.0 | 3.0 | 0.00 | 0.00 | 0.00 | 62 | 1018.9 |
| 20260508041518 | 42 | 158 | 2.0 | 5.0 | 0.00 | 0.00 | 0.00 | 63 | 1018.8 |
| 20260508040518 | 42 | 87 | 2.0 | 5.0 | 0.00 | 0.00 | 0.00 | 70 | 1018.6 |
| 20260508035519 | 43 | 84 | 4.0 | 6.0 | 0.00 | 0.00 | 0.00 | 69 | 1018.6 |
| 20260508034528 | 43 | 138 | 3.0 | 3.0 | 0.00 | 0.00 | 0.00 | 65 | 1018.6 |
| 20260508033519 | 43 | 165 | 5.0 | 7.0 | 0.00 | 0.00 | 0.00 | 65 | 1018.5 |
| 20260508032519 | 43 | 148 | 5.0 | 7.0 | 0.00 | 0.00 | 0.00 | 67 | 1018.5 |
| 20260508031520 | 42 | 138 | 5.0 | 7.0 | 0.00 | 0.00 | 0.00 | 67 | 1018.4 |
| 20260508030520 | 42 | 159 | 5.0 | 7.0 | 0.00 | 0.00 | 0.00 | 72 | 1018.3 |
| 20260508025529 | 41 | 146 | 4.0 | 5.0 | 0.00 | 0.00 | 0.00 | 75 | 1018.2 |
| 20260508024520 | 42 | 151 | 4.0 | 6.0 | 0.00 | 0.00 | 0.00 | 74 | 1018.1 |
| 20260508023520 | 41 | 144 | 5.0 | 6.0 | 0.00 | 0.00 | 0.00 | 76 | 1018.1 |
| 20260508022529 | 44 | 141 | 3.0 | 4.0 | 0.00 | 0.00 | 0.00 | 71 | 1018.0 |
| 20260508021550 | 46 | 100 | 2.0 | 4.0 | 0.00 | 0.00 | 0.00 | 59 | 1017.8 |
| 20260508020530 | 47 | 119 | 2.0 | 2.0 | 0.00 | 0.00 | 0.00 | 55 | 1017.8 |
| 20260508015530 | 49 | 81 | 2.0 | 3.0 | 0.00 | 0.00 | 0.00 | 55 | 1017.7 |
| 20260508014530 | 50 | 7 | 0.0 | 0.0 | 0.00 | 0.00 | 0.00 | 51 | 1017.5 |
| 20260508013531 | 51 | 313 | 2.0 | 2.0 | 0.00 | 0.00 | 0.00 | 50 | 1017.4 |
| 20260508012521 | 53 | 328 | 3.0 | 6.0 | 0.00 | 0.00 | 0.00 | 47 | 1017.4 |
| 20260508011522 | 55 | 324 | 6.0 | 9.0 | 0.00 | 0.00 | 0.00 | 42 | 1017.3 |
| 20260508010516 | 55 | 325 | 7.0 | 11.0 | 0.00 | 0.00 | 0.00 | 36 | 1017.3 |
| 20260508005522 | 56 | 327 | 6.0 | 9.0 | 0.00 | 0.00 | 0.00 | 36 | 1017.2 |
| 20260508003522 | 57 | 340 | 6.0 | 9.0 | 0.00 | 0.00 | 0.00 | 35 | 1017.1 |
| 20260508002520 | 57 | 347 | 9.0 | 14.0 | 0.00 | 0.00 | 0.00 | 32 | 1017.1 |
| 20260508001517 | 56 | 321 | 6.0 | 9.0 | 0.00 | 0.00 | 0.00 | 35 | 1017.0 |
| 20260508000517 | 56 | 314 | 6.0 | 9.0 | 0.00 | 0.00 | 0.00 | 36 | 1017.0 |
| 20260507235538 | 58 | 316 | 8.0 | 13.0 | 0.00 | 0.00 | 0.00 | 34 | 1017.0 |
| 20260507234518 | 58 | 353 | 4.0 | 9.0 | 0.00 | 0.00 | 0.00 | 34 | 1017.0 |
| 20260507233524 | 58 | 1 | 6.0 | 9.0 | 0.00 | 0.00 | 0.00 | 32 | 1017.0 |
| 20260507232538 | 58 | 9 | 7.0 | 13.0 | 0.00 | 0.00 | 0.00 | 32 | 1016.9 |
| 20260507231518 | 57 | 30 | 6.0 | 11.0 | 0.00 | 0.00 | 0.00 | 34 | 1017.0 |
| 20260507230518 | 58 | 354 | 6.0 | 10.0 | 0.00 | 0.00 | 0.00 | 33 | 1017.0 |
| 20260507225518 | 57 | 1 | 6.0 | 9.0 | 0.00 | 0.00 | 0.00 | 33 | 1017.1 |
| 20260507224519 | 57 | 21 | 7.0 | 11.0 | 0.00 | 0.00 | 0.00 | 34 | 1017.2 |
| 20260507223518 | 57 | 301 | 4.0 | 9.0 | 0.00 | 0.00 | 0.00 | 32 | 1017.3 |
| 20260507222559 | 57 | 25 | 6.0 | 9.0 | 0.00 | 0.00 | 0.00 | 34 | 1017.3 |
| 20260507221539 | 57 | 350 | 4.0 | 7.0 | 0.00 | 0.00 | 0.00 | 32 | 1017.5 |
| 20260507220519 | 56 | 337 | 4.0 | 8.0 | 0.00 | 0.00 | 0.00 | 32 | 1017.5 |
| 20260507215519 | 56 | 316 | 5.0 | 8.0 | 0.00 | 0.00 | 0.00 | 32 | 1017.7 |
| 20260507214520 | 56 | 308 | 4.0 | 7.0 | 0.00 | 0.00 | 0.00 | 32 | 1017.9 |
| 20260507213520 | 55 | 278 | 3.0 | 6.0 | 0.00 | 0.00 | 0.00 | 31 | 1018.0 |
| 20260507212539 | 54 | 69 | 3.0 | 5.0 | 0.00 | 0.00 | 0.00 | 33 | 1018.2 |
| 20260507211520 | 54 | 180 | 5.0 | 9.0 | 0.00 | 0.00 | 0.00 | 35 | 1018.4 |
| 20260507210520 | 53 | 201 | 3.0 | 6.0 | 0.00 | 0.00 | 0.00 | 35 | 1018.7 |
| 20260507205520 | 52 | 195 | 5.0 | 11.0 | 0.00 | 0.00 | 0.00 | 35 | 1018.8 |
| 20260507204541 | 52 | 218 | 5.0 | 9.0 | 0.00 | 0.00 | 0.00 | 36 | 1019.0 |
| 20260507203521 | 51 | 195 | 6.0 | 9.0 | 0.00 | 0.00 | 0.00 | 36 | 1019.1 |
| 20260507202521 | 50 | 181 | 6.0 | 9.0 | 0.00 | 0.00 | 0.00 | 37 | 1019.2 |
| 20260507201521 | 50 | 199 | 6.0 | 9.0 | 0.00 | 0.00 | 0.00 | 40 | 1019.3 |
| 20260507200521 | 49 | 178 | 6.0 | 10.0 | 0.00 | 0.00 | 0.00 | 39 | 1019.4 |
| 20260507195603 | 48 | 193 | 6.0 | 8.0 | 0.00 | 0.00 | 0.00 | 43 | 1019.5 |
| 20260507194522 | 47 | 187 | 6.0 | 10.0 | 0.00 | 0.00 | 0.00 | 41 | 1019.5 |
| 20260507193516 | 47 | 190 | 6.0 | 8.0 | 0.00 | 0.00 | 0.00 | 40 | 1019.6 |
| 20260507192522 | 45 | 198 | 7.0 | 9.0 | 0.00 | 0.00 | 0.00 | 47 | 1019.8 |
| 20260507191522 | 44 | 200 | 5.0 | 8.0 | 0.00 | 0.00 | 0.00 | 44 | 1020.0 |
| 20260507190522 | 44 | 204 | 6.0 | 8.0 | 0.00 | 0.00 | 0.00 | 49 | 1020.1 |
| 20260507185523 | 43 | 203 | 5.0 | 7.0 | 0.00 | 0.00 | 0.00 | 45 | 1020.2 |
| 20260507184517 | 43 | 200 | 5.0 | 6.0 | 0.00 | 0.00 | 0.00 | 47 | 1020.4 |
| 20260507183517 | 43 | 217 | 4.0 | 6.0 | 0.00 | 0.00 | 0.00 | 54 | 1020.5 |
| 20260507182517 | 43 | 203 | 5.0 | 6.0 | 0.00 | 0.00 | 0.00 | 51 | 1020.5 |
| 20260507181517 | 43 | 218 | 3.0 | 5.0 | 0.00 | 0.00 | 0.00 | 55 | 1020.6 |
| 20260507180518 | 43 | 220 | 4.0 | 5.0 | 0.00 | 0.00 | 0.00 | 53 | 1020.7 |
| 20260507175525 | 43 | 203 | 2.0 | 3.0 | 0.00 | 0.00 | 0.00 | 45 | 1020.8 |
| 20260507174524 | 42 | 193 | 3.0 | 4.0 | 0.00 | 0.00 | 0.00 | 50 | 1020.8 |
| 20260507173524 | 41 | 185 | 2.0 | 3.0 | 0.00 | 0.00 | 0.00 | 50 | 1021.0 |
| 20260507172524 | 41 | 172 | 2.0 | 3.0 | 0.00 | 0.00 | 0.00 | 49 | 1021.0 |
| 20260507171525 | 40 | 170 | 2.0 | 4.0 | 0.00 | 0.00 | 0.00 | 50 | 1021.1 |
| 20260507170525 | 40 | 195 | 3.0 | 4.0 | 0.00 | 0.00 | 0.00 | 48 | 1021.1 |
| 20260507165525 | 41 | 158 | 2.0 | 2.0 | 0.00 | 0.00 | 0.00 | 43 | 1021.1 |
| 20260507164525 | 40 | 141 | 2.0 | 4.0 | 0.00 | 0.00 | 0.00 | 43 | 1021.2 |
| 20260507163525 | 39 | 218 | 2.0 | 3.0 | 0.00 | 0.00 | 0.00 | 44 | 1021.3 |
| 20260507162606 | 37 | 230 | 1.0 | 3.0 | 0.00 | 0.00 | 0.00 | 44 | 1021.4 |
| 20260507161526 | 36 | 243 | 2.0 | 3.0 | 0.00 | 0.00 | 0.00 | 49 | 1021.4 |
| 20260507160520 | 37 | 254 | 4.0 | 6.0 | 0.00 | 0.00 | 0.00 | 53 | 1021.5 |
| 20260507155526 | 39 | 233 | 2.0 | 3.0 | 0.00 | 0.00 | 0.00 | 50 | 1021.4 |
| 20260507154546 | 38 | 176 | 1.0 | 1.0 | 0.00 | 0.00 | 0.00 | 46 | 1021.5 |
| 20260507153527 | 38 | 249 | 2.0 | 3.0 | 0.00 | 0.00 | 0.00 | 52 | 1021.6 |
| 20260507152527 | 39 | 285 | 1.0 | 2.0 | 0.00 | 0.00 | 0.00 | 51 | 1021.6 |
| 20260507151547 | 37 | 66 | 1.0 | 2.0 | 0.00 | 0.00 | 0.00 | 51 | 1021.7 |
| 20260507150527 | 34 | 121 | 1.0 | 2.0 | 0.00 | 0.00 | 0.00 | 56 | 1021.7 |
| 20260507145527 | 33 | 170 | 3.0 | 4.0 | 0.00 | 0.00 | 0.00 | 58 | 1021.6 |
| 20260507144528 | 30 | 149 | 2.0 | 3.0 | 0.00 | 0.00 | 0.00 | 60 | 1021.7 |
| 20260507143528 | 29 | 150 | 2.0 | 3.0 | 0.00 | 0.00 | 0.00 | 60 | 1021.6 |
| 20260507142528 | 29 | 245 | 2.0 | 4.0 | 0.00 | 0.00 | 0.00 | 62 | 1021.6 |
| 20260507141528 | 28 | 194 | 3.0 | 4.0 | 0.00 | 0.00 | 0.00 | 66 | 1021.4 |
| 20260507140522 | 30 | 213 | 3.0 | 5.0 | 0.00 | 0.00 | 0.00 | 61 | 1021.5 |
| 20260507135543 | 29 | 146 | 4.0 | 6.0 | 0.00 | 0.00 | 0.00 | 60 | 1021.4 |
| 20260507134523 | 27 | 133 | 6.0 | 8.0 | 0.00 | 0.00 | 0.00 | 64 | 1021.5 |
| 20260507133517 | 26 | 210 | 4.0 | 6.0 | 0.00 | 0.00 | 0.00 | 67 | 1021.4 |
| 20260507132518 | 25 | 138 | 7.0 | 8.0 | 0.00 | 0.00 | 0.00 | 65 | 1021.3 |
| 20260507131517 | 22 | 143 | 6.0 | 7.0 | 0.00 | 0.00 | 0.00 | 70 | 1021.4 |
| 20260507130517 | 20 | 147 | 5.0 | 6.0 | 0.00 | 0.00 | 0.00 | 72 | 1021.4 |
| 20260507125518 | 17 | 131 | 4.0 | 5.0 | 0.00 | 0.00 | 0.00 | 76 | 1021.5 |
| 20260507124519 | 14 | 146 | 6.0 | 9.0 | 0.00 | 0.00 | 0.00 | 81 | 1021.5 |
| 20260507123518 | 13 | 148 | 5.0 | 6.0 | 0.00 | 0.00 | 0.00 | 81 | 1021.5 |
| 20260507122518 | 14 | 152 | 5.0 | 6.0 | 0.00 | 0.00 | 0.00 | 81 | 1021.3 |
| 20260507121530 | 16 | 100 | 2.0 | 5.0 | 0.00 | 0.00 | 0.00 | 78 | 1021.2 |
| 20260507120539 | 15 | 149 | 5.0 | 6.0 | 0.00 | 0.00 | 0.00 | 78 | 1021.2 |
| 20260507115519 | 14 | 167 | 7.0 | 10.0 | 0.00 | 0.00 | 0.00 | 85 | 1021.1 |
| 20260507114519 | 14 | 173 | 5.0 | 7.0 | 0.00 | 0.00 | 0.00 | 83 | 1021.2 |
| 20260507113531 | 15 | 106 | 2.0 | 5.0 | 0.00 | 0.00 | 0.00 | 83 | 1021.0 |
| 20260507112519 | 13 | 141 | 5.0 | 6.0 | 0.00 | 0.00 | 0.00 | 87 | 1021.1 |
| 20260507111519 | 14 | 144 | 4.0 | 6.0 | 0.00 | 0.00 | 0.00 | 86 | 1021.1 |
| 20260507110532 | 15 | 160 | 1.0 | 2.0 | 0.00 | 0.00 | 0.00 | 84 | 1021.1 |
| 20260507105520 | 17 | 141 | 4.0 | 5.0 | 0.00 | 0.00 | 0.00 | 84 | 1021.1 |
| 20260507104520 | 18 | 147 | 5.0 | 8.0 | 0.00 | 0.00 | 0.00 | 83 | 1021.2 |